,,,PA_Meas_PMT16A,,PR_Meas_QMR101_102,,RH_Meas_QMH101,,SR_Meas_QMS101,,TA_Meas_QMH101,,GenWind,,GenWind,
date,time,status,PA,status,PR,status,RH,status,SR,status,TA,status,DirAvg,status,SpdAvg,
2009-12-19, 00:00:04,VALID,1005.48,VALID,0,VALID,87.6024,VALID,0,VALID,26.0012,VALID,354,VALID,0.582812,
2009-12-19, 00:01:04,VALID,1005.47,VALID,0,VALID,87.6558,VALID,0,VALID,25.9602,VALID,350,VALID,0.642578,
2009-12-19, 00:02:04,VALID,1005.44,VALID,0,VALID,87.6711,VALID,0,VALID,25.9622,VALID,345,VALID,0.955078,
2009-12-19, 00:03:04,VALID,1005.46,VALID,0,VALID,87.7245,VALID,0,VALID,25.9408,VALID,344,VALID,1.09258,
2009-12-19, 00:04:04,VALID,1005.45,VALID,0,VALID,87.7932,VALID,0,VALID,25.9427,VALID,330,VALID,0.721094,
2009-12-19, 00:05:04,VALID,1005.45,VALID,0,VALID,87.7245,VALID,0,VALID,25.9427,VALID,353,VALID,1.16602,
2009-12-19, 00:06:04,VALID,1005.45,VALID,0,VALID,87.816,VALID,0,VALID,25.9427,VALID,355,VALID,0.766016,
2009-12-19, 00:07:04,VALID,1005.41,VALID,0,VALID,87.7626,VALID,0,VALID,25.9427,VALID,356,VALID,1.08086,
2009-12-19, 00:08:04,VALID,1005.39,VALID,0,VALID,87.694,VALID,0,VALID,25.9427,VALID,342,VALID,0.595703,
2009-12-19, 00:09:04,VALID,1005.38,VALID,0,VALID,87.7398,VALID,0,VALID,25.9427,VALID,334,VALID,0.451562,
2009-12-19, 00:10:04,VALID,1005.38,VALID,0,VALID,87.7474,VALID,0,VALID,25.9427,VALID,359,VALID,0.965234,
2009-12-19, 00:11:04,VALID,1005.33,VALID,0,VALID,87.7398,VALID,0,VALID,25.9232,VALID,3,VALID,1.16992,
2009-12-19, 00:12:04,VALID,1005.31,VALID,0,VALID,87.7245,VALID,0,VALID,25.9427,VALID,355,VALID,0.742578,
2009-12-19, 00:13:04,VALID,1005.3,VALID,0,VALID,87.7398,VALID,0,VALID,25.9018,VALID,350,VALID,0.830859,
2009-12-19, 00:14:04,VALID,1005.26,VALID,0,VALID,87.7092,VALID,0.100563,VALID,25.9018,VALID,327,VALID,0.6125,
2009-12-19, 00:15:04,VALID,1005.26,VALID,0,VALID,87.6101,VALID,0,VALID,25.9232,VALID,342,VALID,0.683594,
2009-12-19, 00:16:04,VALID,1005.23,VALID,0,VALID,87.6329,VALID,0,VALID,25.9427,VALID,341,VALID,0.309766,
2009-12-19, 00:17:04,VALID,1005.19,VALID,0,VALID,87.6253,VALID,0,VALID,25.9232,VALID,349,VALID,0.789844,
2009-12-19, 00:18:04,VALID,1005.15,VALID,0,VALID,87.5795,VALID,0,VALID,25.9232,VALID,358,VALID,0.567969,
2009-12-19, 00:19:04,VALID,1005.11,VALID,0,VALID,87.5185,VALID,0,VALID,25.9018,VALID,344,VALID,0.968359,
2009-12-19, 00:20:04,VALID,1005.11,VALID,0,VALID,87.4575,VALID,0,VALID,25.9232,VALID,347,VALID,0.851953,
2009-12-19, 00:21:04,VALID,1005.12,VALID,0,VALID,87.3965,VALID,0,VALID,25.9232,VALID,350,VALID,0.532812,
2009-12-19, 00:22:04,VALID,1005.12,VALID,0,VALID,87.2668,VALID,0,VALID,25.9427,VALID,337,VALID,0.926562,
2009-12-19, 00:23:04,VALID,1005.1,VALID,0,VALID,87.2362,VALID,0,VALID,25.9622,VALID,6,VALID,0.444922,
2009-12-19, 00:24:04,VALID,1005.06,VALID,0,VALID,87.1905,VALID,0,VALID,25.9817,VALID,349,VALID,0.726172,
2009-12-19, 00:25:04,VALID,1005.05,VALID,0,VALID,87.0684,VALID,0,VALID,25.9836,VALID,354,VALID,0.812109,
2009-12-19, 00:26:04,VALID,1005.04,VALID,0,VALID,87.0684,VALID,0,VALID,26.0012,VALID,4,VALID,0.796484,
2009-12-19, 00:27:04,VALID,1005.01,VALID,0,VALID,87.015,VALID,0,VALID,26.0012,VALID,331,VALID,1.0207,
2009-12-19, 00:28:04,VALID,1005.01,VALID,0,VALID,87.0684,VALID,0,VALID,26.0401,VALID,342,VALID,0.910547,
2009-12-19, 00:29:04,VALID,1005.01,VALID,0,VALID,87.0303,VALID,0,VALID,26.0596,VALID,345,VALID,1.00586,
2009-12-19, 00:30:04,VALID,1005.02,VALID,0,VALID,87.0226,VALID,0,VALID,26.0401,VALID,358,VALID,0.916016,
2009-12-19, 00:31:04,VALID,1005.01,VALID,0,VALID,87.0303,VALID,0,VALID,26.0401,VALID,327,VALID,0.703516,
2009-12-19, 00:32:04,VALID,1004.99,VALID,0,VALID,87.1371,VALID,0,VALID,26.0791,VALID,355,VALID,1.2875,
2009-12-19, 00:33:04,VALID,1005,VALID,0,VALID,87.1066,VALID,0,VALID,26.0771,VALID,355,VALID,0.811719,
2009-12-19, 00:34:04,VALID,1005,VALID,0,VALID,87.1066,VALID,0,VALID,26.0771,VALID,351,VALID,0.631641,
2009-12-19, 00:35:04,VALID,1004.97,VALID,0,VALID,87.1676,VALID,0,VALID,26.0985,VALID,358,VALID,0.731641,
2009-12-19, 00:36:04,VALID,1004.98,VALID,0,VALID,87.2668,VALID,0,VALID,26.0381,VALID,14,VALID,0.760547,
2009-12-19, 00:37:04,VALID,1004.96,VALID,0,VALID,87.3125,VALID,0,VALID,26.0381,VALID,334,VALID,0.641016,
2009-12-19, 00:38:04,VALID,1004.96,VALID,0,VALID,87.3888,VALID,0,VALID,26.0401,VALID,346,VALID,0.629687,
2009-12-19, 00:39:04,VALID,1004.93,VALID,0,VALID,87.4651,VALID,0,VALID,26.0206,VALID,351,VALID,1.06523,
2009-12-19, 00:40:04,VALID,1004.91,VALID,0,VALID,87.549,VALID,0,VALID,26.0206,VALID,357,VALID,0.941406,
2009-12-19, 00:41:04,VALID,1004.9,VALID,0,VALID,87.549,VALID,0,VALID,25.9992,VALID,348,VALID,0.560547,
2009-12-19, 00:42:04,VALID,1004.86,VALID,0,VALID,87.6177,VALID,0,VALID,25.9992,VALID,356,VALID,0.852734,
2009-12-19, 00:43:04,VALID,1004.87,VALID,0,VALID,87.6635,VALID,0,VALID,26.0206,VALID,6,VALID,0.967969,
2009-12-19, 00:44:04,VALID,1004.87,VALID,0,VALID,87.6558,VALID,0,VALID,25.9797,VALID,341,VALID,0.728516,
2009-12-19, 00:45:04,VALID,1004.81,VALID,0,VALID,87.7321,VALID,0,VALID,26.0012,VALID,346,VALID,0.678906,
2009-12-19, 00:46:04,VALID,1004.78,VALID,0,VALID,87.816,VALID,0,VALID,25.9817,VALID,325,VALID,1.01641,
2009-12-19, 00:47:04,VALID,1004.78,VALID,0,VALID,87.8542,VALID,0,VALID,25.9602,VALID,356,VALID,0.988281,
2009-12-19, 00:48:04,VALID,1004.75,VALID,0,VALID,87.8923,VALID,0,VALID,25.9622,VALID,354,VALID,0.878125,
2009-12-19, 00:49:04,VALID,1004.75,VALID,0,VALID,87.961,VALID,0,VALID,25.9622,VALID,352,VALID,0.973047,
2009-12-19, 00:50:04,VALID,1004.73,VALID,0,VALID,87.9457,VALID,0,VALID,25.9622,VALID,354,VALID,0.904688,
2009-12-19, 00:51:04,VALID,1004.71,VALID,0,VALID,88.0602,VALID,0,VALID,25.9018,VALID,318,VALID,1.15547,
2009-12-19, 00:52:04,VALID,1004.71,VALID,0,VALID,88.1059,VALID,0,VALID,25.9232,VALID,351,VALID,0.791406,
2009-12-19, 00:53:04,VALID,1004.7,VALID,0,VALID,88.1441,VALID,0,VALID,25.9018,VALID,1,VALID,0.733984,
2009-12-19, 00:54:04,VALID,1004.69,VALID,0,VALID,88.2204,VALID,0,VALID,25.9038,VALID,355,VALID,1.01289,
2009-12-19, 00:55:04,VALID,1004.64,VALID,0,VALID,88.2814,VALID,0,VALID,25.9038,VALID,3,VALID,0.685547,
2009-12-19, 00:56:04,VALID,1004.68,VALID,0,VALID,88.2814,VALID,0,VALID,25.8823,VALID,4,VALID,0.840234,
2009-12-19, 00:57:04,VALID,1004.66,VALID,0,VALID,88.2356,VALID,0,VALID,25.9038,VALID,355,VALID,1.0457,
2009-12-19, 00:58:04,VALID,1004.66,VALID,0,VALID,88.228,VALID,0,VALID,25.9018,VALID,349,VALID,1.03633,
2009-12-19, 00:59:04,VALID,1004.67,VALID,0,VALID,88.228,VALID,0.100563,VALID,25.8823,VALID,350,VALID,1.03203,
2009-12-19, 01:00:04,VALID,1004.64,VALID,0,VALID,88.2509,VALID,0,VALID,25.9038,VALID,5,VALID,0.771094,
2009-12-19, 01:01:04,VALID,1004.63,VALID,0,VALID,88.2967,VALID,0,VALID,25.9038,VALID,349,VALID,0.871094,
2009-12-19, 01:02:04,VALID,1004.63,VALID,0,VALID,88.3348,VALID,0,VALID,25.8843,VALID,348,VALID,0.774609,
2009-12-19, 01:03:04,VALID,1004.63,VALID,0,VALID,88.3577,VALID,0,VALID,25.8843,VALID,351,VALID,0.973828,
2009-12-19, 01:04:04,VALID,1004.6,VALID,0,VALID,88.3577,VALID,0,VALID,25.8843,VALID,355,VALID,0.385938,
2009-12-19, 01:05:04,VALID,1004.61,VALID,0,VALID,88.4111,VALID,0,VALID,25.8629,VALID,357,VALID,0.474219,
2009-12-19, 01:06:04,VALID,1004.58,VALID,0,VALID,88.4111,VALID,0,VALID,25.8434,VALID,343,VALID,0.861719,
2009-12-19, 01:07:04,VALID,1004.58,VALID,0,VALID,88.4416,VALID,0,VALID,25.8434,VALID,350,VALID,0.971484,
2009-12-19, 01:08:04,VALID,1004.55,VALID,0,VALID,88.5026,VALID,0,VALID,25.8434,VALID,353,VALID,0.995703,
2009-12-19, 01:09:04,VALID,1004.57,VALID,0,VALID,88.495,VALID,0,VALID,25.8648,VALID,329,VALID,0.478906,
2009-12-19, 01:10:04,VALID,1004.52,VALID,0,VALID,88.4645,VALID,0.100563,VALID,25.8434,VALID,14,VALID,0.764453,
2009-12-19, 01:11:04,VALID,1004.49,VALID,0,VALID,88.4874,VALID,0,VALID,25.8434,VALID,347,VALID,0.563672,
2009-12-19, 01:12:04,VALID,1004.47,VALID,0,VALID,88.434,VALID,0,VALID,25.8648,VALID,345,VALID,0.785156,
2009-12-19, 01:13:04,VALID,1004.47,VALID,0,VALID,88.4111,VALID,0,VALID,25.8648,VALID,355,VALID,1.05742,
2009-12-19, 01:14:04,VALID,1004.46,VALID,0,VALID,88.434,VALID,0,VALID,25.8434,VALID,348,VALID,0.519141,
2009-12-19, 01:15:04,VALID,1004.43,VALID,0,VALID,88.4798,VALID,0,VALID,25.8453,VALID,336,VALID,0.367969,
2009-12-19, 01:16:04,VALID,1004.43,VALID,0,VALID,88.5179,VALID,0,VALID,25.8453,VALID,354,VALID,0.351172,
2009-12-19, 01:17:04,VALID,1004.4,VALID,0,VALID,88.556,VALID,0,VALID,25.8064,VALID,335,VALID,0.888672,
2009-12-19, 01:18:04,VALID,1004.39,VALID,0,VALID,88.6628,VALID,0,VALID,25.7869,VALID,357,VALID,0.690234,
2009-12-19, 01:19:04,VALID,1004.35,VALID,0,VALID,88.8002,VALID,0,VALID,25.7869,VALID,349,VALID,1.10078,
2009-12-19, 01:20:04,VALID,1004.35,VALID,0,VALID,88.7925,VALID,0,VALID,25.748,VALID,352,VALID,0.881641,
2009-12-19, 01:21:04,VALID,1004.3,VALID,0,VALID,88.8688,VALID,0,VALID,25.7071,VALID,1,VALID,1.01133,
2009-12-19, 01:22:04,VALID,1004.32,VALID,0,VALID,88.9909,VALID,0,VALID,25.7285,VALID,355,VALID,1.05703,
2009-12-19, 01:23:04,VALID,1004.32,VALID,0,VALID,89.0443,VALID,0,VALID,25.7071,VALID,356,VALID,1.2,
2009-12-19, 01:24:04,VALID,1004.31,VALID,0,VALID,89.0977,VALID,0,VALID,25.6876,VALID,11,VALID,0.857031,
2009-12-19, 01:25:04,VALID,1004.3,VALID,0,VALID,89.0977,VALID,0,VALID,25.709,VALID,360,VALID,1.17969,
2009-12-19, 01:26:04,VALID,1004.31,VALID,0,VALID,89.0519,VALID,0,VALID,25.7071,VALID,350,VALID,0.903125,
2009-12-19, 01:27:04,VALID,1004.31,VALID,0,VALID,88.9909,VALID,0,VALID,25.7285,VALID,334,VALID,0,
2009-12-19, 01:28:04,VALID,1004.33,VALID,0,VALID,88.9756,VALID,0,VALID,25.7285,VALID,355,VALID,0.823828,
2009-12-19, 01:29:04,VALID,1004.3,VALID,0,VALID,88.9833,VALID,0,VALID,25.7285,VALID,347,VALID,0.779297,
2009-12-19, 01:30:04,VALID,1004.28,VALID,0,VALID,89.0061,VALID,0,VALID,25.709,VALID,348,VALID,0.853125,
2009-12-19, 01:31:04,VALID,1004.3,VALID,0,VALID,89.0367,VALID,0,VALID,25.6876,VALID,1,VALID,1.13086,
2009-12-19, 01:32:04,VALID,1004.31,VALID,0,VALID,89.0824,VALID,0,VALID,25.67,VALID,355,VALID,0.788281,
2009-12-19, 01:33:04,VALID,1004.29,VALID,0,VALID,89.0672,VALID,0,VALID,25.6681,VALID,343,VALID,0.925781,
2009-12-19, 01:34:04,VALID,1004.26,VALID,0,VALID,89.0443,VALID,0,VALID,25.6895,VALID,345,VALID,0.557422,
2009-12-19, 01:35:04,VALID,1004.26,VALID,0,VALID,89.0214,VALID,0,VALID,25.6486,VALID,358,VALID,1.11875,
2009-12-19, 01:36:04,VALID,1004.27,VALID,0,VALID,88.9833,VALID,0,VALID,25.6486,VALID,348,VALID,0.822266,
2009-12-19, 01:37:04,VALID,1004.24,VALID,0,VALID,88.9909,VALID,0,VALID,25.6486,VALID,335,VALID,0.784766,
2009-12-19, 01:38:04,VALID,1004.29,VALID,0,VALID,88.9985,VALID,0,VALID,25.6486,VALID,358,VALID,1.12734,
2009-12-19, 01:39:04,VALID,1004.28,VALID,0,VALID,88.968,VALID,0,VALID,25.67,VALID,353,VALID,0.718359,
2009-12-19, 01:40:04,VALID,1004.3,VALID,0,VALID,88.9985,VALID,0,VALID,25.6486,VALID,356,VALID,0.758594,
2009-12-19, 01:41:04,VALID,1004.31,VALID,0,VALID,88.9985,VALID,0,VALID,25.6486,VALID,351,VALID,0.623828,
2009-12-19, 01:42:04,VALID,1004.29,VALID,0,VALID,88.968,VALID,0,VALID,25.6506,VALID,3,VALID,0.414063,
2009-12-19, 01:43:04,VALID,1004.29,VALID,0,VALID,89.0214,VALID,0,VALID,25.6486,VALID,2,VALID,1.02422,
2009-12-19, 01:44:04,VALID,1004.26,VALID,0,VALID,89.0519,VALID,0,VALID,25.6292,VALID,328,VALID,1.34492,
2009-12-19, 01:45:04,VALID,1004.26,VALID,0,VALID,89.0367,VALID,0,VALID,25.67,VALID,356,VALID,1.42188,
2009-12-19, 01:46:04,VALID,1004.28,VALID,0,VALID,89.0061,VALID,0,VALID,25.6292,VALID,337,VALID,0.566797,
2009-12-19, 01:47:04,VALID,1004.27,VALID,0,VALID,89.0214,VALID,0,VALID,25.6486,VALID,352,VALID,0.988672,
2009-12-19, 01:48:04,VALID,1004.28,VALID,0,VALID,89.0824,VALID,0,VALID,25.67,VALID,344,VALID,1.68633,
2009-12-19, 01:49:04,VALID,1004.23,VALID,0,VALID,89.029,VALID,0,VALID,25.6506,VALID,354,VALID,1.27734,
2009-12-19, 01:50:04,VALID,1004.23,VALID,0,VALID,89.0367,VALID,0,VALID,25.6486,VALID,345,VALID,1.35547,
2009-12-19, 01:51:04,VALID,1004.18,VALID,0,VALID,89.0367,VALID,0,VALID,25.6292,VALID,347,VALID,1.28125,
2009-12-19, 01:52:04,VALID,1004.17,VALID,0,VALID,89.029,VALID,0,VALID,25.6486,VALID,351,VALID,1.29531,
2009-12-19, 01:53:04,VALID,1004.15,VALID,0,VALID,89.0138,VALID,0,VALID,25.67,VALID,342,VALID,0.235938,
2009-12-19, 01:54:04,VALID,1004.12,VALID,0,VALID,89.0138,VALID,0,VALID,25.6506,VALID,345,VALID,1.38906,
2009-12-19, 01:55:04,VALID,1004.11,VALID,0,VALID,89.029,VALID,0,VALID,25.6292,VALID,352,VALID,0.525781,
2009-12-19, 01:56:04,VALID,1004.1,VALID,0,VALID,89.0672,VALID,0,VALID,25.6486,VALID,1,VALID,1.25039,
2009-12-19, 01:57:04,VALID,1004.1,VALID,0,VALID,89.0367,VALID,0,VALID,25.6506,VALID,348,VALID,1.24766,
2009-12-19, 01:58:04,VALID,1004.07,VALID,0,VALID,88.968,VALID,0,VALID,25.67,VALID,338,VALID,0.977344,
2009-12-19, 01:59:04,VALID,1004.02,VALID,0,VALID,89.0367,VALID,0,VALID,25.6506,VALID,359,VALID,1.16406,
2009-12-19, 02:00:04,VALID,1004.04,VALID,0,VALID,89.0138,VALID,0,VALID,25.6292,VALID,346,VALID,1.2082,
2009-12-19, 02:01:04,VALID,1003.97,VALID,0,VALID,89.0672,VALID,0,VALID,25.6506,VALID,354,VALID,1.03672,
2009-12-19, 02:02:04,VALID,1003.97,VALID,0,VALID,89.0443,VALID,0,VALID,25.6506,VALID,347,VALID,1.30625,
2009-12-19, 02:03:04,VALID,1003.96,VALID,0,VALID,89.0061,VALID,0,VALID,25.6097,VALID,356,VALID,0.614062,
2009-12-19, 02:04:04,VALID,1003.96,VALID,0,VALID,89.0672,VALID,0,VALID,25.6292,VALID,353,VALID,1.14453,
2009-12-19, 02:05:04,VALID,1003.96,VALID,0,VALID,89.0824,VALID,0,VALID,25.6506,VALID,301,VALID,0.311328,
2009-12-19, 02:06:04,VALID,1003.96,VALID,0,VALID,89.1664,VALID,0,VALID,25.6311,VALID,353,VALID,1.47344,
2009-12-19, 02:07:04,VALID,1003.93,VALID,0,VALID,89.113,VALID,0,VALID,25.6506,VALID,351,VALID,1.4332,
2009-12-19, 02:08:04,VALID,1003.96,VALID,0,VALID,89.0519,VALID,0,VALID,25.6486,VALID,353,VALID,1.3625,
2009-12-19, 02:09:04,VALID,1003.95,VALID,0,VALID,88.9222,VALID,0,VALID,25.6895,VALID,1,VALID,0.939453,
2009-12-19, 02:10:04,VALID,1003.93,VALID,0,VALID,88.907,VALID,0,VALID,25.6486,VALID,349,VALID,0.957031,
2009-12-19, 02:11:04,VALID,1003.91,VALID,0,VALID,88.9375,VALID,0,VALID,25.6895,VALID,352,VALID,1.67422,
2009-12-19, 02:12:04,VALID,1003.89,VALID,0,VALID,88.7925,VALID,0,VALID,25.6876,VALID,7,VALID,1.17188,
2009-12-19, 02:13:04,VALID,1003.88,VALID,0,VALID,88.8002,VALID,0,VALID,25.6681,VALID,352,VALID,0.902734,
2009-12-19, 02:14:04,VALID,1003.85,VALID,0,VALID,88.8231,VALID,0,VALID,25.6486,VALID,342,VALID,0.764844,
2009-12-19, 02:15:04,VALID,1003.84,VALID,0,VALID,88.968,VALID,0,VALID,25.6292,VALID,358,VALID,0.896484,
2009-12-19, 02:16:04,VALID,1003.86,VALID,0,VALID,89.0824,VALID,0,VALID,25.5921,VALID,354,VALID,0.638672,
2009-12-19, 02:17:04,VALID,1003.84,VALID,0,VALID,89.2198,VALID,0,VALID,25.5532,VALID,360,VALID,0.920703,
2009-12-19, 02:18:04,VALID,1003.88,VALID,0,VALID,89.3571,VALID,0,VALID,25.5337,VALID,352,VALID,0.833984,
2009-12-19, 02:19:04,VALID,1003.87,VALID,0,VALID,89.5325,VALID,0,VALID,25.4928,VALID,2,VALID,0.792969,
2009-12-19, 02:20:04,VALID,1003.87,VALID,0,VALID,89.5707,VALID,0,VALID,25.5337,VALID,354,VALID,0.987109,
2009-12-19, 02:21:04,VALID,1003.92,VALID,0,VALID,89.5478,VALID,0,VALID,25.5337,VALID,352,VALID,0.975,
2009-12-19, 02:22:04,VALID,1003.91,VALID,0,VALID,89.502,VALID,0,VALID,25.4928,VALID,12,VALID,0.344141,
2009-12-19, 02:23:04,VALID,1003.95,VALID,0,VALID,89.5173,VALID,0.100563,VALID,25.5123,VALID,3,VALID,0.972656,
2009-12-19, 02:24:04,VALID,1003.92,VALID,0,VALID,89.4486,VALID,0,VALID,25.4928,VALID,327,VALID,0.555078,
2009-12-19, 02:25:04,VALID,1003.93,VALID,0,VALID,89.441,VALID,0,VALID,25.5123,VALID,349,VALID,0.766016,
2009-12-19, 02:26:04,VALID,1003.93,VALID,0,VALID,89.4639,VALID,0,VALID,25.5337,VALID,314,VALID,0.242578,
2009-12-19, 02:27:04,VALID,1003.95,VALID,0,VALID,89.502,VALID,0,VALID,25.4928,VALID,8,VALID,0.507422,
2009-12-19, 02:28:04,VALID,1003.92,VALID,0,VALID,89.4868,VALID,0,VALID,25.5142,VALID,344,VALID,0.2375,
2009-12-19, 02:29:04,VALID,1003.9,VALID,0,VALID,89.5402,VALID,0,VALID,25.5123,VALID,343,VALID,0.713281,
2009-12-19, 02:30:04,VALID,1003.9,VALID,0,VALID,89.4791,VALID,0,VALID,25.5123,VALID,342,VALID,0.5375,
2009-12-19, 02:31:04,VALID,1003.9,VALID,0,VALID,89.4105,VALID,0,VALID,25.5318,VALID,3,VALID,0.894531,
2009-12-19, 02:32:04,VALID,1003.91,VALID,0,VALID,89.2884,VALID,0,VALID,25.5513,VALID,291,VALID,0.819922,
2009-12-19, 02:33:04,VALID,1003.94,VALID,0,VALID,89.1282,VALID,0,VALID,25.6116,VALID,341,VALID,0.639453,
2009-12-19, 02:34:04,VALID,1003.95,VALID,0,VALID,89.0214,VALID,0.100563,VALID,25.5921,VALID,304,VALID,0.0121094,
2009-12-19, 02:35:04,VALID,1003.94,VALID,0,VALID,89.0214,VALID,0.100563,VALID,25.5688,VALID,343,VALID,0.269531,
2009-12-19, 02:36:04,VALID,1003.99,VALID,0,VALID,88.968,VALID,0,VALID,25.5707,VALID,330,VALID,0.157813,
2009-12-19, 02:37:04,VALID,1004,VALID,0,VALID,88.968,VALID,0,VALID,25.6116,VALID,325,VALID,0.465234,
2009-12-19, 02:38:04,VALID,1004.02,VALID,0,VALID,88.9222,VALID,0,VALID,25.5707,VALID,323,VALID,0.157422,
2009-12-19, 02:39:04,VALID,1004.05,VALID,0,VALID,88.9222,VALID,0,VALID,25.5513,VALID,279,VALID,0.690625,
2009-12-19, 02:40:04,VALID,1004.06,VALID,0,VALID,88.8307,VALID,0,VALID,25.5921,VALID,320,VALID,0.46875,
2009-12-19, 02:41:04,VALID,1004.07,VALID,0,VALID,88.7697,VALID,0,VALID,25.5921,VALID,335,VALID,0,
2009-12-19, 02:42:04,VALID,1004.09,VALID,0,VALID,88.7925,VALID,0,VALID,25.5707,VALID,335,VALID,0,
2009-12-19, 02:43:04,VALID,1004.11,VALID,0,VALID,88.8688,VALID,0,VALID,25.5727,VALID,335,VALID,0,
2009-12-19, 02:44:04,VALID,1004.12,VALID,0,VALID,89.0061,VALID,0,VALID,25.5318,VALID,332,VALID,0,
2009-12-19, 02:45:04,VALID,1004.13,VALID,0,VALID,89.1282,VALID,0.100563,VALID,25.5123,VALID,313,VALID,0.00546875,
2009-12-19, 02:46:04,VALID,1004.13,VALID,0,VALID,89.1053,VALID,0,VALID,25.5318,VALID,293,VALID,0.194141,
2009-12-19, 02:47:04,VALID,1004.18,VALID,0,VALID,88.9527,VALID,0,VALID,25.5318,VALID,296,VALID,0.947656,
2009-12-19, 02:48:04,VALID,1004.2,VALID,0,VALID,88.7925,VALID,0,VALID,25.5318,VALID,286,VALID,0.0578125,
2009-12-19, 02:49:04,VALID,1004.17,VALID,0,VALID,88.7773,VALID,0,VALID,25.5513,VALID,286,VALID,0.135547,
2009-12-19, 02:50:04,VALID,1004.16,VALID,0,VALID,88.8002,VALID,0,VALID,25.5727,VALID,286,VALID,0.414453,
2009-12-19, 02:51:04,VALID,1004.15,VALID,0,VALID,88.7697,VALID,0,VALID,25.5532,VALID,286,VALID,0.146094,
2009-12-19, 02:52:04,VALID,1004.14,VALID,0,VALID,88.7773,VALID,0,VALID,25.5123,VALID,320,VALID,0.469531,
2009-12-19, 02:53:04,VALID,1004.11,VALID,0,VALID,88.8383,VALID,0,VALID,25.5123,VALID,342,VALID,0.558594,
2009-12-19, 02:54:04,VALID,1004.1,VALID,0,VALID,88.8688,VALID,0,VALID,25.5142,VALID,343,VALID,0.522266,
2009-12-19, 02:55:04,VALID,1004.1,VALID,0,VALID,88.7925,VALID,0,VALID,25.4539,VALID,349,VALID,0.514063,
2009-12-19, 02:56:04,VALID,1004.1,VALID,0,VALID,89.029,VALID,0,VALID,25.3974,VALID,349,VALID,0.404297,
2009-12-19, 02:57:04,VALID,1004.11,VALID,0,VALID,89.2121,VALID,0,VALID,25.3584,VALID,349,VALID,0.563672,
2009-12-19, 02:58:04,VALID,1004.07,VALID,0,VALID,89.502,VALID,0.100563,VALID,25.339,VALID,342,VALID,0.620313,
2009-12-19, 02:59:04,VALID,1004.09,VALID,0,VALID,89.6241,VALID,0,VALID,25.3195,VALID,343,VALID,0.180469,
2009-12-19, 03:00:04,VALID,1004.12,VALID,0,VALID,89.6393,VALID,0,VALID,25.3,VALID,343,VALID,0.412891,
2009-12-19, 03:01:04,VALID,1004.12,VALID,0,VALID,89.6699,VALID,0,VALID,25.2786,VALID,343,VALID,0.0914062,
2009-12-19, 03:02:04,VALID,1004.17,VALID,0,VALID,89.5783,VALID,0.100563,VALID,25.2981,VALID,343,VALID,0.353906,
2009-12-19, 03:03:04,VALID,1004.18,VALID,0,VALID,89.4028,VALID,0,VALID,25.3584,VALID,336,VALID,0.230859,
2009-12-19, 03:04:04,VALID,1004.21,VALID,0,VALID,89.1206,VALID,0,VALID,25.376,VALID,287,VALID,1.09609,
2009-12-19, 03:05:04,VALID,1004.22,VALID,0,VALID,88.7315,VALID,0,VALID,25.4344,VALID,277,VALID,0.598047,
2009-12-19, 03:06:04,VALID,1004.29,VALID,0,VALID,88.3119,VALID,0,VALID,25.5337,VALID,292,VALID,0.510156,
2009-12-19, 03:07:04,VALID,1004.31,VALID,0,VALID,88.0068,VALID,0,VALID,25.5513,VALID,292,VALID,0.235156,
2009-12-19, 03:08:04,VALID,1004.32,VALID,0,VALID,87.9152,VALID,0,VALID,25.6116,VALID,292,VALID,0.0488281,
2009-12-19, 03:09:04,VALID,1004.33,VALID,0,VALID,87.6787,VALID,0,VALID,25.6097,VALID,310,VALID,0.813672,
2009-12-19, 03:10:04,VALID,1004.34,VALID,0,VALID,87.5567,VALID,0,VALID,25.6506,VALID,329,VALID,0.519531,
2009-12-19, 03:11:04,VALID,1004.33,VALID,0,VALID,87.2973,VALID,0,VALID,25.6895,VALID,330,VALID,0.279297,
2009-12-19, 03:12:04,VALID,1004.37,VALID,0,VALID,87.2896,VALID,0,VALID,25.6876,VALID,329,VALID,0,
2009-12-19, 03:13:04,VALID,1004.28,VALID,0,VALID,87.1828,VALID,0,VALID,25.6876,VALID,353,VALID,0.635547,
2009-12-19, 03:14:04,VALID,1004.27,VALID,0,VALID,87.0455,VALID,0.100563,VALID,25.7071,VALID,350,VALID,0.514844,
2009-12-19, 03:15:04,VALID,1004.26,VALID,0,VALID,86.8319,VALID,0,VALID,25.748,VALID,323,VALID,0.285937,
2009-12-19, 03:16:04,VALID,1004.23,VALID,0,VALID,86.8624,VALID,0,VALID,25.746,VALID,285,VALID,0.292969,
2009-12-19, 03:17:04,VALID,1004.24,VALID,0,VALID,86.8701,VALID,0,VALID,25.7655,VALID,342,VALID,0.477344,
2009-12-19, 03:18:04,VALID,1004.2,VALID,0,VALID,86.7404,VALID,0,VALID,25.785,VALID,334,VALID,0.321484,
2009-12-19, 03:19:04,VALID,1004.2,VALID,0,VALID,86.6793,VALID,0,VALID,25.785,VALID,23,VALID,0.685547,
2009-12-19, 03:20:04,VALID,1004.21,VALID,0,VALID,86.5725,VALID,0,VALID,25.8044,VALID,360,VALID,0.165234,
2009-12-19, 03:21:04,VALID,1004.24,VALID,0,VALID,86.5115,VALID,0,VALID,25.8259,VALID,338,VALID,0.526563,
2009-12-19, 03:22:04,VALID,1004.22,VALID,0,VALID,86.5115,VALID,0,VALID,25.8044,VALID,335,VALID,0.823828,
2009-12-19, 03:23:04,VALID,1004.25,VALID,0,VALID,86.4886,VALID,0,VALID,25.8044,VALID,347,VALID,0.639844,
2009-12-19, 03:24:04,VALID,1004.25,VALID,0,VALID,86.5344,VALID,0,VALID,25.8239,VALID,346,VALID,0.185156,
2009-12-19, 03:25:04,VALID,1004.26,VALID,0,VALID,86.481,VALID,0,VALID,25.8044,VALID,264,VALID,0.0195313,
2009-12-19, 03:26:04,VALID,1004.27,VALID,0,VALID,86.542,VALID,0,VALID,25.8044,VALID,281,VALID,0.369922,
2009-12-19, 03:27:04,VALID,1004.27,VALID,0,VALID,86.6107,VALID,0,VALID,25.8064,VALID,357,VALID,0.319141,
2009-12-19, 03:28:04,VALID,1004.28,VALID,0,VALID,86.6641,VALID,0,VALID,25.8064,VALID,330,VALID,0.544922,
2009-12-19, 03:29:04,VALID,1004.3,VALID,0,VALID,86.6031,VALID,0,VALID,25.8064,VALID,351,VALID,1.01406,
2009-12-19, 03:30:04,VALID,1004.29,VALID,0,VALID,86.6412,VALID,0,VALID,25.8064,VALID,349,VALID,0.693359,
2009-12-19, 03:31:04,VALID,1004.3,VALID,0,VALID,86.6793,VALID,0,VALID,25.7655,VALID,333,VALID,0.499219,
2009-12-19, 03:32:04,VALID,1004.3,VALID,0,VALID,86.6946,VALID,0,VALID,25.7655,VALID,354,VALID,0.777344,
2009-12-19, 03:33:04,VALID,1004.33,VALID,0,VALID,86.8319,VALID,0.100563,VALID,25.7655,VALID,351,VALID,0.749219,
2009-12-19, 03:34:04,VALID,1004.32,VALID,0,VALID,86.8243,VALID,0,VALID,25.746,VALID,329,VALID,0.903906,
2009-12-19, 03:35:04,VALID,1004.36,VALID,0,VALID,86.954,VALID,0,VALID,25.746,VALID,316,VALID,0.460938,
2009-12-19, 03:36:04,VALID,1004.31,VALID,0,VALID,86.8929,VALID,0,VALID,25.7265,VALID,295,VALID,0.597656,
2009-12-19, 03:37:04,VALID,1004.31,VALID,0,VALID,86.9006,VALID,0,VALID,25.748,VALID,351,VALID,1.05039,
2009-12-19, 03:38:04,VALID,1004.3,VALID,0,VALID,86.8395,VALID,0,VALID,25.7265,VALID,331,VALID,1.03789,
2009-12-19, 03:39:04,VALID,1004.32,VALID,0,VALID,86.6565,VALID,0,VALID,25.7265,VALID,351,VALID,1.20625,
2009-12-19, 03:40:04,VALID,1004.31,VALID,0,VALID,86.6565,VALID,0,VALID,25.7869,VALID,342,VALID,0.801562,
2009-12-19, 03:41:04,VALID,1004.32,VALID,0,VALID,86.6488,VALID,0,VALID,25.7655,VALID,349,VALID,0.717969,
2009-12-19, 03:42:04,VALID,1004.39,VALID,0,VALID,86.4886,VALID,0,VALID,25.7869,VALID,337,VALID,0.817578,
2009-12-19, 03:43:04,VALID,1004.37,VALID,0,VALID,86.4962,VALID,0,VALID,25.8064,VALID,4,VALID,1.00625,
2009-12-19, 03:44:04,VALID,1004.4,VALID,0,VALID,86.481,VALID,0.100563,VALID,25.785,VALID,313,VALID,0.0875,
2009-12-19, 03:45:04,VALID,1004.46,VALID,0,VALID,86.3894,VALID,0,VALID,25.785,VALID,3,VALID,0.419922,